Miscellaneous Local Product
Issued by NWS North Platte, NE

Home | Current Version | Previous Version | Graphics & Text | Print | Product List | Glossary On
Versions: 1 2 3 4 5 6 7 8 9 10 11 12 13 14 15 16 17 18 19 20 21 22 23 24 25 26 27 28 29 30 31 32 33 34 35 36 37 38 39 40 41 42 43 44 45 46 47 48 49 50
694
AXUS43 KLBF 161910
MISLBF


WESTERN AND NORTH CENTRAL NEBRASKA HOURLY WEATHER ROUNDUP
NATIONAL WEATHER SERVICE NORTH PLATTE NE
200 PM CDT WED AUG 16 2017

NOTE: "FAIR" INDICATES FEW OR NO CLOUDS BELOW 12,000 FEET WITH NO
SIGNIFICANT WEATHER AND/OR OBSTRUCTIONS TO VISIBILITY.

NOTE: STATIONS NOT REPORTING VARIABLES SUCH AS SKY/WEATHER OR
PRESSURE ARE PROVIDED BY RAWS AND APRS NETWORKS AND ARE NOT UNDER
NATIONAL WEATHER SERVICE QUALITY CONTROL.

...OBSERVATIONS IN AND NEAR THE EASTERN PANHANDLE OF NEBRASKA...

CITY           SKY/WX    TMP DP  RH WIND       PRES   REMARKS
PINE RIDGE     CLOUDY    73  57  57 NW12      30.02S
GORDON         CLOUDY    67  58  72 N8        30.02F
CHADRON        MOSUNNY   73  55  53 NE8       30.03S
ALLIANCE       PTSUNNY   68  55  63 N14       30.04F
SIDNEY         MOSUNNY   74  52  46 N12G24    30.07S
CRESCENT LAKE    N/A     69  58  67 N12G20      N/A
$$

...OBSERVATIONS IN NORTHERN NEBRASKA AND FAR SOUTHERN SOUTH DAKOTA...

CITY           SKY/WX    TMP DP  RH WIND       PRES   REMARKS
WINNER         LGT RAIN  66  63  90 NW15      29.91R
VALENTINE      LGT RAIN  65  59  81 N10       29.95R
THEDFORD       CLOUDY    65  61  87 N14       29.96R
AINSWORTH      CLOUDY    65  64  96 NW16G24   29.93R FOG
O`NEILL        CLOUDY    71  65  83 N5        29.85S
ORD            MOSUNNY   75  62  64 NW14      29.84F
BROKEN BOW     MOSUNNY   75  62  64 NW15      29.88F
VALENTINE NWR    N/A     64  60  88 N13         N/A
HALSEY           N/A     70  62  77 NW8         N/A
BUTTE            N/A     68  63  83 CALM        N/A
CHAMBERS         N/A     77  65  66 CALM        N/A
EWING            N/A     69  65  89 N6          N/A
$$

...OBSERVATIONS IN SOUTHWEST NEBRASKA AND FAR NORTHEAST COLORADO...

CITY           SKY/WX    TMP DP  RH WIND       PRES   REMARKS
HOLYOKE        FAIR      73  59  60 N16G22    30.04R
IMPERIAL       PTSUNNY   75  57  53 NW15      29.99S
OGALLALA       CLOUDY    70  59  69 NW15      30.00S
NORTH PLATTE   PTSUNNY   76  60  57 NW7       29.94S
MCCOOK         CLOUDY    77  61  57 NW12      29.94S
LEXINGTON      CLOUDY    76  61  57 W10       29.90F
STAPLETON        N/A     70  63  79 CALM        N/A
GOTHENBURG       N/A     75  57  54 NW6         N/A
CALLAWAY         N/A     75  63  66 NW12        N/A
$$

...OBSERVATIONS IN CENTRAL LINCOLN COUNTY AREA...

CITY           SKY/WX    TMP DP  RH WIND       PRES   REMARKS
N.P. AIRPORT   PTSUNNY   76  60  57 NW7       29.94S
N.P. SOUTHEAST   N/A     76  60  57 N5G12       N/A
N.P. HILLCREST   N/A     74  60  60 NW10        N/A
$$

...SOME OBSERVATIONS FROM AROUND THE REGION...

CITY           SKY/WX    TMP DP  RH WIND       PRES   REMARKS
DENVER         MOSUNNY   72  46  39 NE12      30.14F
LIMON          CLOUDY    69  50  50 NW15G24   30.14F
ASPEN          CLOUDY    69  36  29 VRB3G17   30.26S
LARAMIE        SUNNY     65  37  35 N12G22    30.22S
CASPER         MOSUNNY   73  41  31 SW8       30.12F
CHEYENNE       SUNNY     68  35  29 N14G22    30.16F
SCOTTSBLUFF    MOSUNNY   74  47  38 N12G20    30.05S
GRAND ISLAND   PTSUNNY   77  64  64 NW13      29.85S
OMAHA          MOSUNNY   83  66  56 SW12      29.75F
SIOUX FALLS    LGT RAIN  68  67  96 N10       29.77F
PIERRE         CLOUDY    67  59  75 N14       29.90S
RAPID CITY     MOSUNNY   76  52  43 N12       30.02S
BISMARCK       CLOUDY    75  61  61 N14       29.93S
KANSAS CITY    MOSUNNY   84  73  69 SW9       29.80R HX  90
HILL CITY      MOSUNNY   78  62  57 NW14      29.94S
WICHITA        PTSUNNY   87  75  67 S8        29.83R HX  96
DODGE CITY     SUNNY     84  60  44 NW13      29.94S
OKLAHOMA CITY  PTSUNNY   90  73  57 S20G26    29.87F HX  98
DALLAS         PTSUNNY   91  74  57 S18       29.90F HX 100
AMARILLO       SUNNY     80  64  58 NW8       30.02F
$$




USA.gov is the U.S. government's official web portal to all federal, state and local government web resources and services.